Location: McCall
(45.0000°N, 116.0000°W)
Time: 03:57:55
(UTC-06:00)

Amateur Radio Satellites - All Passes

Search period start: 20 September 2014 03:27
Search period end: 21 September 2014 03:27
Location: McCall, 45.0000°N, 116.0000°W

Satellite Date Start Highest point End Downlink Frequencies (MHz)
Time Altitude Azimuth
JAS-1B 20 Sep 03:34:24 03:39:57 46° 99° (E) 03:45:24 435.800 - 435.900 CW/SSB
AO-Echo 20 Sep 03:35:35 03:40:18 49° 100° (E) 03:45:06 ?
Saudisat 1A 20 Sep 03:49:20 03:52:56 25° 246° (WSW) 03:56:31 436.775 MHz
Gurwin Techsat 1B 20 Sep 04:01:24 04:06:18 36° 97° (E) 04:11:09 435.225 FM
ITAMSAT 1 20 Sep 04:10:19 04:15:34 85° 104° (ESE) 04:20:48 435.822 SSB
Uribyol 2 20 Sep 04:14:26 04:19:41 84° 286° (WNW) 04:24:55 436.500 FM
KITSAT 1 20 Sep 04:17:39 04:25:22 45° 45° (NE) 04:33:02 435.175 FM
ISS 20 Sep 04:21:58 04:25:18 89° 329° (NNW) 04:28:39 145.800 FM
Oscar 19 20 Sep 04:26:52 04:31:25 32° 294° (WNW) 04:35:57 437.125 CW, 437.150 USB
AO-7 20 Sep 04:27:14 04:31:40 15° 87° (E) 04:36:05 29.400 - 29.500 MHz
TMSAT-1 20 Sep 04:37:56 04:43:10 57° 100° (E) 04:48:23 436.925 FM
AO-27 20 Sep 04:45:41 04:50:41 48° 291° (WNW) 04:55:40 436.795 MHz FM
Uosat F 20 Sep 04:48:19 04:50:15 12° 88° (E) 04:52:11 435.120 FM
OPAL 20 Sep 04:56:41 05:01:39 48° 67° (ENE) 05:06:41 ?
Oscar 16 20 Sep 05:06:55 05:09:56 16° 302° (WNW) 05:12:57 437.025 USB, Beacon 2401.1428
AO-Echo 20 Sep 05:15:07 05:18:47 22° 297° (WNW) 05:22:30 ?
JAS-1B 20 Sep 05:25:41 05:30:25 27° 299° (WNW) 05:35:03 435.800 - 435.900 CW/SSB
RS-15 20 Sep 05:32:31 05:43:29 74° 119° (ESE) 05:54:21 29.354 - 29.394 USB, Beacon 29.352 USB
Gurwin Techsat 1B 20 Sep 05:41:29 05:46:11 33° 294° (WNW) 05:50:52 435.225 FM
ITAMSAT 1 20 Sep 05:51:28 05:54:23 15° 303° (WNW) 05:57:18 435.822 SSB
Uribyol 2 20 Sep 05:55:55 05:58:22 14° 304° (NW) 06:00:49 436.500 FM
ISS 20 Sep 05:59:22 06:02:20 29° 349° (N) 06:05:18 145.800 FM
SO-50 20 Sep 06:08:33 06:11:47 18° 34° (NNE) 06:15:01 436.795 FM
KITSAT 1 20 Sep 06:13:11 06:20:55 52° 246° (WSW) 06:28:37 435.175 FM
AO-7 20 Sep 06:17:31 06:25:50 75° 107° (ESE) 06:34:07 29.400 - 29.500 MHz
TMSAT-1 20 Sep 06:18:41 06:22:42 22° 299° (WNW) 06:26:41 436.925 FM
Uosat F 20 Sep 06:24:38 06:29:42 86° 286° (WNW) 06:34:44 435.120 FM
OPAL 20 Sep 06:36:36 06:40:46 24° 265° (W) 06:44:58 ?
Hamsat 20 Sep 07:09:43 07:13:37 34° 96° (E) 07:17:28 145.90 MHz
JAS-2 20 Sep 07:14:26 07:20:15 49° 100° (E) 07:26:48 435.800 - 435.900 CW/SSB, 435.910 FM
STRAND 1 20 Sep 07:17:19 07:22:17 58° 71° (ENE) 07:27:18 ?
ISS 20 Sep 07:36:46 07:39:42 28° 9° (N) 07:42:37 145.800 FM
UOSAT-12 20 Sep 07:43:28 07:46:11 15° 30° (NNE) 07:48:54 437.025 FM, 437.400 FM
RS-15 20 Sep 07:46:32 07:56:45 42° 326° (NW) 08:07:02 29.354 - 29.394 USB, Beacon 29.352 USB
SO-50 20 Sep 07:48:16 07:53:05 81° 54° (NE) 07:57:58 436.795 FM
MaSat-1 20 Sep 08:03:45 08:06:09 14° 101° (E) 08:08:32 437.345 MHz
Uosat F 20 Sep 08:05:29 08:07:43 13° 304° (WNW) 08:09:57 435.120 FM
AO-7 20 Sep 08:11:08 08:17:56 30° 307° (NW) 08:24:43 29.400 - 29.500 MHz
SO-67 20 Sep 08:14:39 08:17:29 23° 95° (E) 08:20:17 435.3500 MHz FM
Hamsat 20 Sep 08:46:02 08:49:25 23° 294° (WNW) 08:52:45 145.90 MHz
STRAND 1 20 Sep 08:58:20 09:01:52 19° 269° (W) 09:05:26 ?
JAS-2 20 Sep 09:00:04 09:05:10 31° 295° (WNW) 09:10:49 435.800 - 435.900 CW/SSB, 435.910 FM
ISS 20 Sep 09:13:25 09:16:46 79° 29° (NNE) 09:20:05 145.800 FM
UOSAT-12 20 Sep 09:22:34 09:27:17 63° 51° (NE) 09:31:56 437.025 FM, 437.400 FM
SO-50 20 Sep 09:30:27 09:33:03 15° 251° (WSW) 09:35:40 436.795 FM
MaSat-1 20 Sep 09:37:13 09:42:16 86° 298° (WNW) 09:47:11 437.345 MHz
SO-67 20 Sep 09:47:41 09:50:26 22° 291° (WNW) 09:53:10 435.3500 MHz FM
RS-15 20 Sep 10:04:07 10:12:58 27° 360° (N) 10:21:57 29.354 - 29.394 USB, Beacon 29.352 USB
HO-68 20 Sep 10:10:53 10:17:29 38° 97° (E) 10:24:03 435.675 MHz FM
Oscar 11 20 Sep 10:22:21 10:24:32 14° 89° (E) 10:26:42 145.825 FM, Beacon 2401.500 USB
UKube-1 20 Sep 10:38:41 10:42:21 26° 95° (E) 10:46:00 145.840 MHz, 145.915 MHz
ISS 20 Sep 10:50:58 10:53:06 16° 226° (SW) 10:55:14 145.800 FM
UOSAT-12 20 Sep 11:03:47 11:06:58 18° 249° (WSW) 11:10:07 437.025 FM, 437.400 FM
MaSat-1 20 Sep 11:16:35 11:19:40 16° 316° (NW) 11:22:42 437.345 MHz
FUNcube-1 20 Sep 11:48:42 11:53:12 47° 99° (E) 11:57:36 145.950 - 145.970 MHz USB
Oscar 11 20 Sep 11:56:49 12:01:08 62° 287° (WNW) 12:05:24 145.825 FM, Beacon 2401.500 USB
HO-68 20 Sep 11:58:30 12:05:18 47° 296° (WNW) 12:12:04 435.675 MHz FM
UKube-1 20 Sep 12:14:41 12:18:34 32° 292° (WNW) 12:22:27 145.840 MHz, 145.915 MHz
RS-15 20 Sep 12:18:59 12:29:16 42° 34° (NNE) 12:39:49 29.354 - 29.394 USB, Beacon 29.352 USB
Sapphire 20 Sep 12:32:22 12:37:03 31° 110° (ESE) 12:41:46 437.095 MHz 1200 baud AX-25 AFSK
JAS-1B 20 Sep 12:35:47 12:38:25 12° 50° (NE) 12:40:55 435.800 - 435.900 CW/SSB
PCSat 20 Sep 12:58:34 13:03:49 55° 116° (ESE) 13:09:07 145.825 MHz
Oscar 16 20 Sep 13:07:29 13:11:16 21° 61° (ENE) 13:15:04 437.025 USB, Beacon 2401.1428
AO-Echo 20 Sep 13:16:40 13:17:27 10° 56° (NE) 13:18:13 ?
FUNcube-1 20 Sep 13:25:48 13:29:15 21° 296° (WNW) 13:32:40 145.950 - 145.970 MHz USB
Gurwin Techsat 1B 20 Sep 13:49:13 13:50:37 11° 54° (NE) 13:52:01 435.225 FM
HO-68 20 Sep 13:49:40 13:51:17 11° 317° (NW) 13:52:54 435.675 MHz FM
ITAMSAT 1 20 Sep 13:52:34 13:56:31 23° 62° (ENE) 14:00:29 435.822 SSB
Uribyol 2 20 Sep 13:56:14 14:00:25 26° 63° (ENE) 14:04:38 436.500 FM
Oscar 19 20 Sep 14:06:02 14:11:09 62° 72° (ENE) 14:16:18 437.125 CW, 437.150 USB
Sapphire 20 Sep 14:15:08 14:20:18 44° 309° (NW) 14:25:31 437.095 MHz 1200 baud AX-25 AFSK
JAS-1B 20 Sep 14:19:44 14:27:51 56° 69° (ENE) 14:34:40 435.800 - 435.900 CW/SSB
TMSAT-1 20 Sep 14:23:33 14:26:45 17° 58° (ENE) 14:29:57 436.925 FM
AO-27 20 Sep 14:26:40 14:31:33 44° 68° (ENE) 14:36:27 436.795 MHz FM
RS-15 20 Sep 14:31:36 14:42:40 77° 240° (WSW) 14:54:11 29.354 - 29.394 USB, Beacon 29.352 USB
PCSat 20 Sep 14:42:54 14:47:33 28° 316° (NW) 14:52:14 145.825 MHz
Oscar 16 20 Sep 14:45:04 14:50:11 59° 259° (W) 14:55:21 437.025 USB, Beacon 2401.1428
AO-Echo 20 Sep 14:50:42 14:55:25 78° 75° (ENE) 15:00:08 ?
Gurwin Techsat 1B 20 Sep 15:24:21 15:29:37 68° 73° (ENE) 15:34:54 435.225 FM
AO-7 20 Sep 15:27:49 15:34:39 30° 53° (NE) 15:41:30 29.400 - 29.500 MHz
ITAMSAT 1 20 Sep 15:30:38 15:35:40 53° 260° (W) 15:40:45 435.822 SSB
Uribyol 2 20 Sep 15:34:42 15:39:38 46° 261° (W) 15:44:39 436.500 FM
Oscar 19 20 Sep 15:47:24 15:50:55 18° 269° (W) 15:54:27 437.125 CW, 437.150 USB
TMSAT-1 20 Sep 16:00:44 16:06:01 80° 257° (WSW) 16:11:21 436.925 FM
Uosat F 20 Sep 16:02:41 16:06:30 23° 62° (ENE) 16:10:20 435.120 FM
Sapphire 20 Sep 16:03:07 16:05:12 12° 332° (NNW) 16:07:17 437.095 MHz 1200 baud AX-25 AFSK
AO-27 20 Sep 16:06:59 16:11:14 26° 266° (W) 16:15:31 436.795 MHz FM
JAS-1B 20 Sep 16:11:10 16:18:36 33° 264° (W) 16:25:03 435.800 - 435.900 CW/SSB
AO-Echo 20 Sep 16:33:02 16:34:47 12° 272° (W) 16:36:33 ?
RS-15 20 Sep 16:46:03 16:53:11 20° 261° (W) 17:00:30 29.354 - 29.394 USB, Beacon 29.352 USB
Gurwin Techsat 1B 20 Sep 17:06:43 17:10:05 17° 270° (W) 17:13:29 435.225 FM
AO-7 20 Sep 17:18:28 17:26:46 74° 254° (WSW) 17:35:06 29.400 - 29.500 MHz
JAS-2 20 Sep 17:31:04 17:35:01 23° 62° (ENE) 17:38:59 435.800 - 435.900 CW/SSB, 435.910 FM
Uosat F 20 Sep 17:40:07 17:44:58 50° 260° (W) 17:49:51 435.120 FM
TMSAT-1 20 Sep 17:46:04 17:46:47 10° 274° (W) 17:47:30 436.925 FM
MaSat-1 20 Sep 17:52:25 17:55:59 30° 52° (NE) 17:59:04 437.345 MHz
Saudisat 1A 20 Sep 17:56:40 18:00:55 52° 120° (ESE) 18:05:13 436.775 MHz
Hamsat 20 Sep 18:04:48 18:08:42 33° 69° (ENE) 18:12:37 145.90 MHz
OPAL 20 Sep 18:43:13 18:48:26 77° 106° (ESE) 18:53:31 ?
KITSAT 1 20 Sep 18:50:56 18:56:18 20° 102° (ESE) 19:01:39 435.175 FM
SO-67 20 Sep 18:51:02 18:52:24 12° 64° (ENE) 18:53:45 435.3500 MHz FM
JAS-2 20 Sep 19:14:47 19:19:51 49° 261° (W) 19:24:54 435.800 - 435.900 CW/SSB, 435.910 FM
AO-7 20 Sep 19:16:38 19:20:57 15° 273° (W) 19:25:18 29.400 - 29.500 MHz
STRAND 1 20 Sep 19:27:04 19:30:20 17° 90° (E) 19:33:35 ?
MaSat-1 20 Sep 19:29:38 19:32:26 20° 256° (WSW) 19:34:57 437.345 MHz
Sapphire 20 Sep 19:36:08 19:37:50 11° 26° (NNE) 19:39:33 437.095 MHz 1200 baud AX-25 AFSK
Saudisat 1A 20 Sep 19:37:09 19:40:46 24° 320° (NW) 19:44:25 436.775 MHz
Hamsat 20 Sep 19:41:05 19:44:42 25° 266° (W) 19:48:19 145.90 MHz
PCSat 20 Sep 20:02:08 20:05:26 16° 34° (NE) 20:08:44 145.825 MHz
SO-67 20 Sep 20:21:40 20:25:01 48° 261° (W) 20:28:23 435.3500 MHz FM
OPAL 20 Sep 20:23:25 20:26:41 17° 304° (NW) 20:29:56 ?
HO-68 20 Sep 20:41:45 20:48:05 36° 60° (ENE) 20:54:26 435.675 MHz FM
KITSAT 1 20 Sep 20:42:28 20:50:34 87° 122° (ESE) 20:58:42 435.175 FM
STRAND 1 20 Sep 21:04:54 21:10:00 66° 288° (WNW) 21:15:05 ?
Sapphire 20 Sep 21:17:42 21:22:50 41° 50° (NE) 21:27:56 437.095 MHz 1200 baud AX-25 AFSK
Oscar 11 20 Sep 21:19:34 21:22:05 15° 62° (ENE) 21:24:36 145.825 FM, Beacon 2401.500 USB
UKube-1 20 Sep 21:36:06 21:39:51 30° 67° (ENE) 21:43:38 145.840 MHz, 145.915 MHz
PCSat 20 Sep 21:44:29 21:49:55 67° 56° (NE) 21:55:18 145.825 MHz
SO-50 20 Sep 22:07:06 22:09:44 16° 109° (ESE) 22:12:25 436.795 FM
HO-68 20 Sep 22:28:41 22:35:34 51° 260° (W) 22:42:31 435.675 MHz FM
KITSAT 1 20 Sep 22:40:01 22:46:58 30° 325° (NW) 22:53:57 435.175 FM
FUNcube-1 20 Sep 22:46:51 22:51:05 47° 71° (ENE) 22:55:27 145.950 - 145.970 MHz USB
STRAND 1 20 Sep 22:47:32 22:48:13 10° 306° (NW) 22:48:54 ?
Oscar 11 20 Sep 22:53:27 22:57:46 62° 259° (W) 23:02:08 145.825 FM, Beacon 2401.500 USB
Sapphire 20 Sep 23:01:18 23:06:11 35° 249° (WSW) 23:11:02 437.095 MHz 1200 baud AX-25 AFSK
UKube-1 20 Sep 23:12:18 23:16:01 28° 264° (W) 23:19:47 145.840 MHz, 145.915 MHz
PCSat 20 Sep 23:29:00 23:32:48 20° 254° (WSW) 23:36:34 145.825 MHz
UOSAT-12 20 Sep 23:38:58 23:40:22 11° 107° (ESE) 23:41:46 437.025 FM, 437.400 FM
SO-50 20 Sep 23:45:15 23:49:43 68° 308° (NW) 23:54:21 436.795 FM
FUNcube-1 21 Sep 00:24:37 00:27:45 19° 269° (W) 00:30:56 145.950 - 145.970 MHz USB
KITSAT 1 21 Sep 00:40:41 00:45:29 16° 354° (N) 00:50:18 435.175 FM
Saudisat 1A 21 Sep 00:42:59 00:45:35 15° 33° (NNE) 00:48:10 436.775 MHz
UOSAT-12 21 Sep 01:15:06 01:19:44 87° 125° (SE) 01:24:29 437.025 FM, 437.400 FM
SO-50 21 Sep 01:28:31 01:31:11 15° 329° (NNW) 01:33:54 436.795 FM
Oscar 19 21 Sep 02:16:42 02:20:18 19° 91° (E) 02:23:52 437.125 CW, 437.150 USB
Saudisat 1A 21 Sep 02:21:29 02:25:56 75° 53° (NE) 02:30:20 436.775 MHz
KITSAT 1 21 Sep 02:38:24 02:44:28 22° 25° (NNE) 02:50:31 435.175 FM
AO-27 21 Sep 02:39:24 02:41:48 13° 88° (E) 02:44:11 436.795 MHz FM
Oscar 16 21 Sep 02:54:52 02:59:48 42° 98° (E) 03:04:40 437.025 USB, Beacon 2401.1428
RS-15 21 Sep 02:54:52 02:57:53 11° 93° (E) 03:00:52 29.354 - 29.394 USB, Beacon 29.352 USB
AO-Echo 21 Sep 02:56:15 02:59:57 21° 93° (E) 03:03:43 ?
UOSAT-12 21 Sep 02:57:10 03:00:32 19° 325° (NW) 03:03:56 437.025 FM, 437.400 FM
